Location: Bjelajci
(45.0103°N, 16.1758°E)
Time: 09:50:28
(UTC+00:00)

CZ-2D R/B - Pass Details

Date: 14 July 2020
Orbit: 792 x 844 km, 98.7° (Epoch: 07 August)

Event Time Altitude Azimuth Distance (km) Brightness Sun altitude
Rises 00:38:58 0° 14° (NNE) 3,347 6.8 -19.7°
Reaches altitude 10° 00:41:18 10° 14° (NNE) 2,419 5.8 -19.6°
Maximum altitude 00:46:40 88° 102° (ESE) 832 2.1 -19.2°
Enters shadow 00:49:08 34° 194° (SSW) 1,334 2.7 -19.0°
